�������l�o���
Date,Time,MP-1(��Sv/h),MP-2(��Sv/h),MP-3(��Sv/h),MP-4(��Sv/h),MP-5(��Sv/h),MP-6(��Sv/h),MP-7(��Sv/h),MP-8(��Sv/h),����,����(m/s),���J
2022/06/26,00:00,0.594,0.870,0.548,1.045,0.743,0.348,0.600,0.565,�k,0.8,��
2022/06/26,00:10,0.595,0.871,0.550,1.048,0.743,0.347,0.599,0.566,�k,1.4,��
2022/06/26,00:20,0.593,0.873,0.548,1.046,0.742,0.349,0.599,0.565,�k,1.9,��
2022/06/26,00:30,0.595,0.872,0.547,1.046,0.743,0.347,0.600,0.566,�k��,1.2,��
2022/06/26,00:40,0.594,0.870,0.548,1.048,0.745,0.347,0.601,0.566,���쐼,4.1,��
2022/06/26,00:50,0.594,0.872,0.549,1.046,0.743,0.347,0.600,0.566,�쐼,3.4,��
2022/06/26,01:00,0.595,0.869,0.549,1.047,0.744,0.349,0.601,0.566,��쐼,2.5,��
2022/06/26,01:10,0.595,0.871,0.548,1.048,0.744,0.347,0.600,0.566,��쐼,2.6,��
2022/06/26,01:20,0.597,0.870,0.549,1.046,0.742,0.347,0.600,0.566,��쐼,3.4,��
2022/06/26,01:30,0.595,0.870,0.548,1.048,0.742,0.349,0.601,0.566,��,3.2,��
2022/06/26,01:40,0.596,0.872,0.549,1.047,0.743,0.348,0.601,0.565,��,3.6,��
2022/06/26,01:50,0.596,0.869,0.549,1.047,0.743,0.347,0.601,0.566,��,2.3,��
2022/06/26,02:00,0.594,0.869,0.548,1.047,0.744,0.347,0.601,0.565,��,4.5,��
2022/06/26,02:10,0.595,0.871,0.549,1.047,0.744,0.348,0.600,0.564,��,3.1,��
2022/06/26,02:20,0.594,0.870,0.548,1.048,0.743,0.348,0.601,0.567,�쐼,3.1,��
2022/06/26,02:30,0.594,0.870,0.550,1.047,0.743,0.347,0.602,0.567,��쐼,3.2,��
2022/06/26,02:40,0.597,0.871,0.548,1.046,0.743,0.348,0.601,0.565,��쐼,2.5,��
2022/06/26,02:50,0.596,0.871,0.548,1.047,0.741,0.348,0.601,0.564,��,1.2,��
2022/06/26,03:00,0.594,0.871,0.548,1.051,0.742,0.348,0.601,0.566,�k,2.6,��
2022/06/26,03:10,0.594,0.871,0.547,1.049,0.745,0.347,0.600,0.567,�k,1.7,��
2022/06/26,03:20,0.595,0.871,0.547,1.047,0.743,0.348,0.601,0.566,�k,1.5,��
2022/06/26,03:30,0.594,0.870,0.546,1.044,0.744,0.348,0.601,0.566,�k�k��,0.6,��
2022/06/26,03:40,0.595,0.873,0.548,1.046,0.744,0.349,0.599,0.565,-,CALM,��
2022/06/26,03:50,0.594,0.873,0.549,1.048,0.742,0.346,0.600,0.565,�쓌,0.6,��
2022/06/26,04:00,0.597,0.870,0.547,1.047,0.743,0.348,0.600,0.566,-,CALM,��
2022/06/26,04:10,0.594,0.872,0.550,1.045,0.744,0.346,0.601,0.566,-,CALM,��
2022/06/26,04:20,0.594,0.870,0.549,1.045,0.743,0.347,0.601,0.566,�k,0.6,��
2022/06/26,04:30,0.595,0.870,0.548,1.047,0.743,0.347,0.601,0.566,��쓌,0.8,��
2022/06/26,04:40,0.595,0.871,0.551,1.047,0.742,0.349,0.601,0.567,-,CALM,��
2022/06/26,04:50,0.596,0.871,0.548,1.047,0.743,0.347,0.600,0.565,���쓌,0.6,��
2022/06/26,05:00,0.597,0.872,0.549,1.046,0.743,0.347,0.601,0.565,���k��,0.6,��
2022/06/26,05:10,0.595,0.871,0.549,1.048,0.743,0.347,0.600,0.564,-,CALM,��
2022/06/26,05:20,0.595,0.871,0.549,1.046,0.744,0.347,0.599,0.566,���쓌,0.8,��
2022/06/26,05:30,0.594,0.873,0.548,1.045,0.745,0.347,0.600,0.566,�쓌,0.8,��
2022/06/26,05:40,0.596,0.873,0.547,1.048,0.743,0.347,0.602,0.565,�쓌,2.0,��
2022/06/26,05:50,0.595,0.870,0.546,1.046,0.743,0.347,0.602,0.567,��쓌,3.1,��
2022/06/26,06:00,0.594,0.871,0.547,1.048,0.741,0.346,0.602,0.567,��쓌,3.2,��
2022/06/26,06:10,0.593,0.872,0.547,1.047,0.741,0.348,0.602,0.566,��쓌,3.0,��
2022/06/26,06:20,0.596,0.871,0.548,1.046,0.742,0.347,0.601,0.565,��쓌,2.6,��
2022/06/26,06:30,0.595,0.873,0.547,1.047,0.744,0.348,0.603,0.566,��,2.3,��
2022/06/26,06:40,0.594,0.875,0.549,1.046,0.743,0.346,0.603,0.566,��쓌,1.7,��
2022/06/26,06:50,0.594,0.872,0.550,1.046,0.741,0.348,0.602,0.566,��쓌,2.3,��
2022/06/26,07:00,0.595,0.873,0.549,1.046,0.742,0.347,0.603,0.564,��,1.9,��
2022/06/26,07:10,0.594,0.870,0.548,1.046,0.743,0.346,0.601,0.565,��쐼,2.0,��
2022/06/26,07:20,0.595,0.870,0.549,1.046,0.741,0.348,0.602,0.563,��쐼,2.0,��
2022/06/26,07:30,0.595,0.874,0.548,1.049,0.743,0.348,0.603,0.565,��쐼,1.4,��
2022/06/26,07:40,0.596,0.870,0.548,1.047,0.742,0.348,0.599,0.564,��쓌,1.4,��
2022/06/26,07:50,0.596,0.873,0.549,1.048,0.743,0.349,0.602,0.564,��쓌,2.2,��
2022/06/26,08:00,0.596,0.871,0.549,1.047,0.741,0.348,0.599,0.563,��쓌,2.9,��
2022/06/26,08:10,0.596,0.871,0.549,1.046,0.745,0.349,0.601,0.564,��쓌,2.6,��
2022/06/26,08:20,0.597,0.872,0.548,1.045,0.745,0.349,0.602,0.566,��,4.8,��
2022/06/26,08:30,0.601,0.873,0.548,1.046,0.743,0.350,0.602,0.567,��,4.3,��
2022/06/26,08:40,0.596,0.873,0.548,1.047,0.743,0.349,0.603,0.565,��,5.4,��
2022/06/26,08:50,0.597,0.873,0.549,1.044,0.746,0.349,0.601,0.567,��쓌,6.2,��
2022/06/26,09:00,0.597,0.875,0.549,1.046,0.743,0.347,0.605,0.566,��,5.4,��
2022/06/26,09:10,0.598,0.876,0.550,1.045,0.747,0.350,0.604,0.566,��,4.2,��
2022/06/26,09:20,0.600,0.874,0.549,1.045,0.744,0.349,0.604,0.565,��,4.4,��
2022/06/26,09:30,0.598,0.875,0.550,1.046,0.745,0.348,0.604,0.565,��쓌,8.9,��
2022/06/26,09:40,0.599,0.874,0.549,1.047,0.746,0.348,0.605,0.567,��,8.3,��
2022/06/26,09:50,0.599,0.875,0.551,1.048,0.747,0.349,0.603,0.565,��쓌,9.5,��
2022/06/26,10:00,0.597,0.873,0.550,1.047,0.746,0.348,0.601,0.566,��,9.6,��
2022/06/26,10:10,0.597,0.874,0.548,1.047,0.746,0.348,0.602,0.566,��,9.9,��
2022/06/26,10:20,0.598,0.877,0.548,1.050,0.747,0.347,0.600,0.565,��,10.2,��
2022/06/26,10:30,0.597,0.874,0.549,1.048,0.749,0.348,0.603,0.566,��,9.8,��
2022/06/26,10:40,0.598,0.875,0.550,1.048,0.746,0.347,0.603,0.565,��쓌,8.9,��
2022/06/26,10:50,0.597,0.873,0.548,1.049,0.746,0.347,0.601,0.565,��쓌,12.7,��
2022/06/26,11:00,0.601,0.875,0.548,1.050,0.747,0.347,0.600,0.565,��쓌,11.8,��
2022/06/26,11:10,0.598,0.876,0.549,1.047,0.748,0.349,0.600,0.565,��쓌,13.5,��
2022/06/26,11:20,0.598,0.874,0.549,1.046,0.748,0.349,0.601,0.565,��,13.0,��
2022/06/26,11:30,0.599,0.877,0.550,1.047,0.749,0.347,0.602,0.565,��쓌,11.4,��
2022/06/26,11:40,0.599,0.877,0.551,1.048,0.749,0.349,0.601,0.564,��,9.6,��
2022/06/26,11:50,0.598,0.875,0.552,1.048,0.749,0.348,0.602,0.565,��쓌,12.7,��
2022/06/26,12:00,0.598,0.876,0.552,1.047,0.746,0.348,0.604,0.566,��,7.5,��
2022/06/26,12:10,0.597,0.873,0.547,1.043,0.747,0.349,0.602,0.565,��,7.2,�L
2022/06/26,12:20,0.577,0.829,0.531,1.005,0.715,0.344,0.593,0.562,-,CALM,�L
2022/06/26,12:30,0.572,0.826,0.533,0.991,0.701,0.340,0.584,0.552,�k�k��,3.5,�L
2022/06/26,12:40,0.579,0.831,0.536,0.994,0.709,0.345,0.586,0.555,�k�k��,2.5,�L
2022/06/26,12:50,0.582,0.837,0.538,1.002,0.713,0.347,0.587,0.557,�k��,1.4,�L
2022/06/26,13:00,0.586,0.837,0.539,1.000,0.715,0.348,0.587,0.556,�쐼,0.9,��
2022/06/26,13:10,0.583,0.839,0.538,1.002,0.715,0.345,0.588,0.556,�쐼,2.2,��
2022/06/26,13:20,0.583,0.837,0.534,1.000,0.716,0.345,0.588,0.556,��쐼,3.1,��
2022/06/26,13:30,0.580,0.837,0.534,1.003,0.711,0.346,0.587,0.554,�쐼,3.2,�L
2022/06/26,13:40,0.580,0.836,0.533,1.002,0.714,0.343,0.587,0.555,�쐼,3.9,��
2022/06/26,13:50,0.579,0.836,0.531,0.999,0.713,0.343,0.588,0.555,���쐼,3.6,��
2022/06/26,14:00,0.578,0.833,0.531,0.999,0.710,0.341,0.587,0.555,�쐼,3.5,��
2022/06/26,14:10,0.578,0.832,0.531,0.998,0.709,0.341,0.586,0.555,�쐼,2.6,��
2022/06/26,14:20,0.577,0.833,0.529,1.003,0.710,0.341,0.588,0.555,��쐼,2.5,��
2022/06/26,14:30,0.577,0.832,0.529,0.998,0.711,0.340,0.588,0.555,��,3.2,��
2022/06/26,14:40,0.576,0.833,0.529,0.999,0.711,0.341,0.588,0.555,��,2.8,��
2022/06/26,14:50,0.575,0.833,0.530,0.998,0.707,0.341,0.589,0.555,��,3.2,��
2022/06/26,15:00,0.576,0.833,0.531,0.999,0.709,0.340,0.589,0.557,��,3.4,��
2022/06/26,15:10,0.578,0.834,0.531,1.000,0.711,0.340,0.588,0.556,��,3.6,��
2022/06/26,15:20,0.577,0.833,0.530,1.000,0.711,0.341,0.591,0.555,��,3.4,��
2022/06/26,15:30,0.579,0.832,0.529,1.001,0.709,0.342,0.589,0.556,��,4.4,��
2022/06/26,15:40,0.576,0.835,0.529,1.000,0.711,0.340,0.590,0.557,��,5.2,��
2022/06/26,15:50,0.579,0.835,0.530,1.001,0.712,0.340,0.592,0.558,��,5.1,��
2022/06/26,16:00,0.578,0.832,0.530,1.005,0.712,0.341,0.590,0.556,��쓌,3.8,��
2022/06/26,16:10,0.577,0.836,0.531,1.002,0.715,0.341,0.590,0.557,��쓌,4.3,��
2022/06/26,16:20,0.578,0.833,0.533,1.004,0.713,0.340,0.589,0.557,��,2.9,��
2022/06/26,16:30,0.579,0.835,0.532,1.005,0.717,0.340,0.590,0.557,��쓌,3.1,��
2022/06/26,16:40,0.577,0.838,0.531,1.003,0.715,0.340,0.590,0.556,��,1.9,��
2022/06/26,16:50,0.577,0.836,0.532,1.004,0.716,0.340,0.588,0.557,��쓌,1.7,��
2022/06/26,17:00,0.578,0.836,0.532,1.005,0.714,0.339,0.589,0.555,��쓌,1.5,��
2022/06/26,17:10,0.577,0.836,0.531,1.005,0.716,0.340,0.590,0.555,��쓌,1.2,��
2022/06/26,17:20,0.577,0.836,0.529,1.006,0.715,0.341,0.589,0.556,��쓌,1.4,��
2022/06/26,17:30,0.578,0.836,0.529,1.006,0.714,0.341,0.587,0.555,��쓌,2.8,��
2022/06/26,17:40,0.576,0.837,0.531,1.006,0.715,0.340,0.589,0.556,��쓌,6.0,��
2022/06/26,17:50,0.575,0.837,0.531,1.007,0.715,0.339,0.589,0.556,��쓌,6.4,��
2022/06/26,18:00,0.578,0.837,0.530,1.004,0.716,0.339,0.590,0.556,��,5.7,��
2022/06/26,18:10,0.576,0.835,0.531,1.005,0.718,0.340,0.590,0.557,��,5.4,��
2022/06/26,18:20,0.577,0.836,0.532,1.003,0.715,0.339,0.590,0.557,��,5.4,��
2022/06/26,18:30,0.576,0.837,0.531,1.009,0.717,0.339,0.591,0.559,��,5.1,��
2022/06/26,18:40,0.576,0.835,0.533,1.007,0.717,0.341,0.591,0.558,��쐼,4.0,��
2022/06/26,18:50,0.576,0.839,0.533,1.008,0.717,0.341,0.591,0.558,��쐼,3.2,��
2022/06/26,19:00,0.576,0.839,0.533,1.008,0.717,0.343,0.590,0.558,��쐼,3.0,��
2022/06/26,19:10,0.576,0.840,0.533,1.009,0.719,0.342,0.591,0.559,��쐼,3.2,��
2022/06/26,19:20,0.577,0.841,0.533,1.008,0.718,0.341,0.590,0.559,��쐼,3.0,��
2022/06/26,19:30,0.578,0.840,0.534,1.010,0.719,0.342,0.592,0.558,��쐼,2.8,��
2022/06/26,19:40,0.577,0.840,0.533,1.010,0.718,0.341,0.592,0.558,��,2.0,��
2022/06/26,19:50,0.578,0.842,0.533,1.009,0.718,0.343,0.593,0.559,��쐼,1.2,��
2022/06/26,20:00,0.580,0.841,0.535,1.008,0.718,0.341,0.591,0.558,���쐼,0.9,��
2022/06/26,20:10,0.580,0.841,0.533,1.009,0.719,0.342,0.592,0.558,��,1.4,��
2022/06/26,20:20,0.579,0.840,0.536,1.008,0.719,0.342,0.592,0.559,���k��,1.2,��
2022/06/26,20:30,0.581,0.843,0.535,1.012,0.719,0.342,0.593,0.561,���k��,3.6,��
2022/06/26,20:40,0.580,0.843,0.536,1.009,0.720,0.342,0.593,0.559,��,4.7,��
2022/06/26,20:50,0.581,0.839,0.535,1.011,0.718,0.342,0.593,0.559,��,3.9,��
2022/06/26,21:00,0.580,0.842,0.534,1.011,0.718,0.343,0.592,0.558,��,4.5,��
2022/06/26,21:10,0.580,0.839,0.535,1.012,0.719,0.341,0.592,0.559,���쐼,4.4,��
2022/06/26,21:20,0.580,0.841,0.532,1.010,0.718,0.342,0.591,0.558,���쐼,4.8,��
2022/06/26,21:30,0.579,0.841,0.535,1.008,0.718,0.342,0.592,0.559,��,3.8,��
2022/06/26,21:40,0.579,0.840,0.536,1.009,0.718,0.343,0.591,0.559,��,4.4,��
2022/06/26,21:50,0.579,0.840,0.532,1.010,0.717,0.342,0.591,0.559,��,3.4,��
2022/06/26,22:00,0.579,0.839,0.533,1.010,0.717,0.343,0.592,0.559,��,2.8,��
2022/06/26,22:10,0.580,0.840,0.534,1.010,0.719,0.342,0.592,0.558,��,4.8,��
2022/06/26,22:20,0.579,0.842,0.533,1.008,0.720,0.342,0.592,0.557,��,3.5,��
2022/06/26,22:30,0.578,0.841,0.534,1.010,0.719,0.341,0.592,0.558,��,2.0,��
2022/06/26,22:40,0.579,0.841,0.535,1.012,0.717,0.341,0.592,0.558,�쐼,2.2,��
2022/06/26,22:50,0.581,0.840,0.534,1.011,0.718,0.342,0.593,0.558,�쐼,3.5,��
2022/06/26,23:00,0.580,0.840,0.534,1.013,0.718,0.341,0.592,0.558,���쐼,5.6,��
2022/06/26,23:10,0.580,0.840,0.533,1.009,0.718,0.342,0.593,0.558,���쐼,5.6,��
2022/06/26,23:20,0.580,0.839,0.533,1.010,0.720,0.342,0.592,0.560,���쐼,5.2,��
2022/06/26,23:30,0.578,0.841,0.536,1.011,0.717,0.342,0.594,0.559,��,5.9,��
2022/06/26,23:40,0.580,0.842,0.534,1.013,0.718,0.342,0.593,0.559,���쐼,5.4,��
2022/06/26,23:50,0.580,0.840,0.534,1.011,0.720,0.343,0.593,0.559,���쐼,4.1,��
